SQ5LTL-2 Weather Reports


time (UTC)temp
F
wind
direction
speed
knots
gust
knots
rain 1hr
in
rain 24hr
in
rain mn
in
humidity
%
barometer
mb
20260506140518 78 226 2.6 8.7 0.00 0.00 0.00 40 1007.0
20260506140015 78 203 2.6 7.0 0.00 0.00 0.00 39 1006.8
20260506135534 78 212 5.2 9.6 0.00 0.00 0.00 40 1006.8
20260506135032 77 213 2.6 6.1 0.00 0.00 0.00 41 1006.8
20260506134531 78 223 3.5 7.8 0.00 0.00 0.00 41 1006.8
20260506134029 79 210 3.5 5.2 0.00 0.00 0.00 41 1006.7
20260506133529 79 219 3.5 7.0 0.00 0.00 0.00 40 1006.7
20260506133026 79 215 3.5 12.2 0.00 0.00 0.00 40 1006.7
20260506132525 78 198 5.2 8.7 0.00 0.00 0.00 41 1006.7
20260506132023 78 207 4.3 9.6 0.00 0.00 0.00 41 1006.7
20260506131522 78 205 3.5 8.7 0.00 0.00 0.00 41 1006.7
20260506131021 77 204 2.6 7.8 0.00 0.00 0.00 43 1006.7
20260506130519 78 218 5.2 9.6 0.00 0.00 0.00 42 1006.8
20260506130018 78 216 5.2 10.4 0.00 0.00 0.00 42 1006.8
20260506125516 78 216 5.2 11.3 0.00 0.00 0.00 41 1006.9
20260506125035 78 209 5.2 11.3 0.00 0.00 0.00 41 1006.8
20260506124535 78 200 4.3 8.7 0.00 0.00 0.00 41 1006.8
20260506124032 79 225 5.2 11.3 0.00 0.00 0.00 40 1006.8
20260506123531 79 210 3.5 7.8 0.00 0.00 0.00 40 1006.8
20260506123029 77 213 4.3 8.7 0.00 0.00 0.00 42 1006.9
20260506122528 78 227 5.2 13.0 0.00 0.00 0.00 41 1006.9
20260506122026 78 223 4.3 12.2 0.00 0.00 0.00 40 1006.8
20260506121526 78 211 6.1 13.0 0.00 0.00 0.00 41 1006.6
20260506121024 79 198 5.2 13.0 0.00 0.00 0.00 40 1006.7
20260506120522 79 223 4.3 9.6 0.00 0.00 0.00 40 1006.8
20260506120021 79 209 4.3 10.4 0.00 0.00 0.00 40 1006.7
20260506115518 78 208 4.3 9.6 0.00 0.00 0.00 41 1006.5
20260506115017 79 215 6.1 11.3 0.00 0.00 0.00 39 1006.7
20260506114517 77 205 4.3 7.8 0.00 0.00 0.00 40 1006.7
20260506114034 78 210 6.1 11.3 0.00 0.00 0.00 39 1006.6
20260506113533 78 197 6.1 15.6 0.00 0.00 0.00 39 1006.6
20260506113031 78 189 6.1 12.2 0.00 0.00 0.00 38 1006.6
20260506112530 78 194 7.0 16.5 0.00 0.00 0.00 38 1006.5
20260506112029 78 223 3.5 7.0 0.00 0.00 0.00 37 1006.6
20260506111527 79 205 5.2 10.4 0.00 0.00 0.00 37 1006.6
20260506111026 78 201 6.1 13.0 0.00 0.00 0.00 37 1006.5
20260506110524 79 195 4.3 9.6 0.00 0.00 0.00 37 1006.6
20260506110023 78 184 4.3 7.8 0.00 0.00 0.00 37 1006.5
20260506105522 78 197 4.3 9.6 0.00 0.00 0.00 37 1006.6
20260506105020 78 197 6.1 12.2 0.00 0.00 0.00 37 1006.5
20260506104518 77 201 3.5 7.0 0.00 0.00 0.00 38 1006.5
20260506104016 77 212 2.6 5.2 0.00 0.00 0.00 38 1006.7
20260506103535 78 193 4.3 10.4 0.00 0.00 0.00 37 1006.7
20260506103034 77 211 5.2 12.2 0.00 0.00 0.00 37 1006.7
20260506102532 78 199 3.5 11.3 0.00 0.00 0.00 37 1006.6
20260506102031 77 189 3.5 6.1 0.00 0.00 0.00 37 1006.7
20260506101529 77 187 5.2 11.3 0.00 0.00 0.00 37 1006.8
20260506101028 77 204 3.5 7.0 0.00 0.00 0.00 37 1006.7
20260506100526 77 201 3.5 9.6 0.00 0.00 0.00 37 1006.7
20260506100026 76 192 5.2 10.4 0.00 0.00 0.00 37 1006.9
20260506095524 77 197 5.2 10.4 0.00 0.00 0.00 36 1006.9
20260506095023 77 191 4.3 8.7 0.00 0.00 0.00 36 1006.9
20260506094520 77 209 5.2 16.5 0.00 0.00 0.00 36 1006.8
20260506094019 77 205 5.2 11.3 0.00 0.00 0.00 36 1006.7
20260506093517 77 209 4.3 8.7 0.00 0.00 0.00 36 1006.7
20260506093016 75 187 3.5 7.0 0.00 0.00 0.00 38 1006.8
20260506092534 75 183 4.3 11.3 0.00 0.00 0.00 38 1006.8
20260506092033 76 185 4.3 9.6 0.00 0.00 0.00 38 1006.8
20260506091531 75 211 4.3 8.7 0.00 0.00 0.00 38 1006.8
20260506091030 75 192 4.3 10.4 0.00 0.00 0.00 38 1006.6
20260506090528 75 204 3.5 10.4 0.00 0.00 0.00 39 1006.7
20260506090027 74 161 3.5 9.6 0.00 0.00 0.00 39 1006.8
20260506085526 75 176 4.3 7.8 0.00 0.00 0.00 39 1006.7
20260506085024 75 192 3.5 10.4 0.00 0.00 0.00 38 1006.6
20260506084523 74 217 2.6 4.3 0.00 0.00 0.00 39 1006.6
20260506084022 74 198 2.6 5.2 0.00 0.00 0.00 39 1006.6
20260506083520 74 188 3.5 8.7 0.00 0.00 0.00 40 1006.6
20260506083019 74 184 4.3 7.0 0.00 0.00 0.00 40 1006.8
20260506082517 73 171 3.5 7.8 0.00 0.00 0.00 40 1006.8
20260506082015 73 209 3.5 7.8 0.00 0.00 0.00 40 1006.8
20260506081535 72 205 5.2 11.3 0.00 0.00 0.00 41 1006.8
20260506081032 72 187 6.1 11.3 0.00 0.00 0.00 41 1006.9
20260506080531 72 199 4.3 7.8 0.00 0.00 0.00 40 1006.9
20260506073522 71 208 4.3 10.4 0.00 0.00 0.00 41 1007.1
20260506073022 71 193 5.2 8.7 0.00 0.00 0.00 42 1007.0
20260506072520 71 209 4.3 8.7 0.00 0.00 0.00 41 1007.0
20260506072017 70 207 4.3 8.7 0.00 0.00 0.00 42 1006.9
20260506071516 70 227 4.3 9.6 0.00 0.00 0.00 42 1007.0
20260506071035 70 191 4.3 8.7 0.00 0.00 0.00 42 1007.0
20260506070533 69 185 5.2 9.6 0.00 0.00 0.00 43 1007.0
20260506062021 67 189 3.5 7.8 0.00 0.00 0.00 45 1007.0
20260506061519 67 203 4.3 7.8 0.00 0.00 0.00 45 1007.2
20260506061016 66 195 3.5 6.1 0.00 0.00 0.00 46 1007.2
20260506060535 65 204 3.5 7.0 0.00 0.00 0.00 45 1007.2
20260506051019 62 140 2.6 5.2 0.00 0.00 0.00 50 1007.3
20260506050517 62 158 2.6 4.3 0.00 0.00 0.00 50 1007.5
20260506045034 61 161 2.6 5.2 0.00 0.00 0.00 51 1007.7
20260506044533 62 139 0.9 2.6 0.00 0.00 0.00 52 1007.7
20260506044030 61 142 0.9 1.7 0.00 0.00 0.00 52 1007.7
20260506043529 61 155 1.7 3.5 0.00 0.00 0.00 52 1007.6
20260506043027 62 117 1.7 2.6 0.00 0.00 0.00 51 1007.6
20260506042526 61 115 0.9 1.7 0.00 0.00 0.00 53 1007.6
20260506042024 60 113 0.9 1.7 0.00 0.00 0.00 55 1007.6
20260506041523 59 113 0.9 1.7 0.00 0.00 0.00 56 1007.7
20260506041021 58 157 0.9 2.6 0.00 0.00 0.00 56 1007.8
20260506040520 57 167 1.7 3.5 0.00 0.00 0.00 57 1007.7
20260506040018 57 182 1.7 3.5 0.00 0.00 0.00 58 1007.7
20260506035517 55 183 1.7 5.2 0.00 0.00 0.00 61 1007.7
20260506035036 53 152 0.9 2.6 0.00 0.00 0.00 67 1007.7
20260506034534 51 151 0.9 1.7 0.00 0.00 0.00 72 1007.7
20260506034032 51 136 0.9 1.7 0.00 0.00 0.00 72 1007.5
20260506033531 52 128 0.9 1.7 0.00 0.00 0.00 71 1007.6
20260506033031 51 111 0.9 3.5 0.00 0.00 0.00 72 1007.4
20260506032528 51 0.0 0.9 0.00 0.00 0.00 71 1007.5
20260506032027 52 0.0 0.9 0.00 0.00 0.00 71 1007.5
20260506031525 52 118 0.0 1.7 0.00 0.00 0.00 70 1007.6
20260506031024 53 127 0.0 1.7 0.00 0.00 0.00 68 1007.4
20260506030522 54 132 0.0 1.7 0.00 0.00 0.00 66 1007.5
20260506030022 54 146 0.9 1.7 0.00 0.00 0.00 65 1007.5
20260506025519 54 163 0.9 1.7 0.00 0.00 0.00 64 1007.5
20260506025018 55 166 0.9 3.5 0.00 0.00 0.00 63 1007.6
20260506024518 55 186 0.9 2.6 0.00 0.00 0.00 62 1007.6
20260506024037 55 166 0.9 1.7 0.00 0.00 0.00 63 1007.5
20260506023533 55 166 0.9 2.6 0.00 0.00 0.00 62 1007.6
20260506023033 55 186 0.9 2.6 0.00 0.00 0.00 62 1007.6
20260506022531 55 174 1.7 4.3 0.00 0.00 0.00 63 1007.6
20260506022029 55 176 0.9 2.6 0.00 0.00 0.00 64 1007.7
20260506021528 55 182 0.9 1.7 0.00 0.00 0.00 62 1007.7
20260506021027 55 209 0.0 1.7 0.00 0.00 0.00 61 1007.6
20260506020525 55 186 0.9 1.7 0.00 0.00 0.00 62 1007.7
20260506020023 56 172 0.0 2.6 0.00 0.00 0.00 61 1007.8
20260506015523 56 213 0.9 1.7 0.00 0.00 0.00 60 1007.8
20260506015022 56 219 0.9 2.6 0.00 0.00 0.00 60 1007.8
20260506014519 56 197 0.9 2.6 0.00 0.00 0.00 60 1007.8
20260506014019 56 197 0.9 2.6 0.00 0.00 0.00 60 1007.9
20260506013516 56 210 0.9 2.6 0.00 0.00 0.00 60 1007.8
20260506013034 56 194 0.0 1.7 0.00 0.00 0.00 60 1007.8
20260506012533 57 216 0.9 3.5 0.00 0.00 0.00 60 1007.8
20260506012032 56 209 0.9 2.6 0.00 0.00 0.00 60 1007.7
20260506011530 56 198 0.9 1.7 0.00 0.00 0.00 61 1007.8
20260506011029 56 201 0.9 2.6 0.00 0.00 0.00 60 1007.7
20260506010528 56 216 0.9 2.6 0.00 0.00 0.00 61 1007.7
20260506010026 57 200 0.9 2.6 0.00 0.00 0.00 60 1007.7
20260506005524 57 205 0.9 2.6 0.00 0.00 0.00 59 1007.6
20260506005023 57 195 0.9 2.6 0.00 0.00 0.00 60 1007.6
20260506004523 57 229 0.0 1.7 0.00 0.00 0.00 59 1007.7
20260506004020 57 201 0.9 1.7 0.00 0.00 0.00 59 1007.6
20260506003518 57 207 0.0 2.6 0.00 0.00 0.00 59 1007.7
20260506003018 57 198 0.9 2.6 0.00 0.00 0.00 58 1007.8
20260506002515 57 205 0.9 3.5 0.00 0.00 0.00 58 1007.6
20260506002034 57 216 0.9 2.6 0.00 0.00 0.00 58 1007.7
20260506001532 57 209 0.9 1.7 0.00 0.00 0.00 58 1007.7
20260506001032 57 203 0.9 1.7 0.00 0.00 0.00 58 1007.7
20260506000529 57 211 0.9 1.7 0.00 0.00 0.00 59 1007.6
20260506000029 57 199 0.0 1.7 0.00 0.00 0.00 59 1007.7
20260505235528 57 205 0.9 2.6 0.00 0.00 0.00 58 1007.7
20260505235027 58 204 0.9 4.3 0.00 0.00 0.00 58 1007.8
20260505234524 58 200 0.9 2.6 0.00 0.00 0.00 57 1007.8
20260505234023 58 215 0.9 2.6 0.00 0.00 0.00 57 1007.7
20260505233522 58 206 1.7 2.6 0.00 0.00 0.00 57 1007.7
20260505233019 57 212 0.9 2.6 0.00 0.00 0.00 58 1007.7
20260505232518 57 208 0.9 1.7 0.00 0.00 0.00 58 1007.7
20260505232018 56 208 0.9 1.7 0.00 0.00 0.00 60 1007.7
20260505231535 55 200 0.0 1.7 0.00 0.00 0.00 62 1007.9
20260505231033 56 150 0.9 1.7 0.00 0.00 0.00 61 1007.8
20260505230534 57 169 0.0 1.7 0.00 0.00 0.00 59 1007.7
20260505230030 57 188 0.0 1.7 0.00 0.00 0.00 58 1007.7
20260505225531 58 158 0.9 1.7 0.00 0.00 0.00 56 1007.7
20260505225028 59 195 0.9 2.6 0.00 0.00 0.00 55 1007.8
20260505224526 59 193 0.0 1.7 0.00 0.00 0.00 54 1007.8
20260505224025 60 212 0.9 1.7 0.00 0.00 0.00 53 1007.8
20260505223524 60 223 0.9 2.6 0.00 0.00 0.00 52 1007.7
20260505223022 60 203 0.9 2.6 0.00 0.00 0.00 52 1007.8
20260505222520 61 211 0.9 1.7 0.00 0.00 0.00 52 1007.7
20260505222020 61 201 0.9 1.7 0.00 0.00 0.00 51 1007.7
20260505221517 62 195 0.9 3.5 0.00 0.00 0.00 50 1007.8
20260505221016 62 208 0.9 3.5 0.00 0.00 0.00 50 1007.8
20260505220535 62 191 0.9 2.6 0.00 0.00 0.00 49 1007.8
20260505220033 63 203 1.7 3.5 0.00 0.00 0.00 49 1007.8
20260505215532 63 215 1.7 3.5 0.00 0.00 0.00 48 1007.8
20260505215030 63 216 2.6 4.3 0.00 0.00 0.00 47 1007.8
20260505214529 63 209 0.9 3.5 0.00 0.00 0.00 48 1007.8
20260505214027 64 199 1.7 3.5 0.00 0.00 0.00 47 1007.8
20260505213526 64 199 1.7 4.3 0.00 0.00 0.00 47 1007.7
20260505213026 64 189 1.7 3.5 0.00 0.00 0.00 47 1007.8
20260505212524 64 192 1.7 4.3 0.00 0.00 0.00 46 1007.7
20260505212023 64 194 1.7 3.5 0.00 0.00 0.00 46 1007.7
20260505211520 65 204 1.7 4.3 0.00 0.00 0.00 46 1007.7
20260505211020 65 195 2.6 4.3 0.00 0.00 0.00 46 1007.7
20260505210518 65 198 0.9 2.6 0.00 0.00 0.00 46 1007.6
20260505210016 65 199 1.7 3.5 0.00 0.00 0.00 45 1007.6
20260505205534 65 204 1.7 3.5 0.00 0.00 0.00 45 1007.6
20260505205033 66 187 1.7 3.5 0.00 0.00 0.00 45 1007.6
20260505204531 66 201 1.7 3.5 0.00 0.00 0.00 45 1007.6
20260505204030 66 201 1.7 6.1 0.00 0.00 0.00 44 1007.6
20260505203529 66 217 1.7 4.3 0.00 0.00 0.00 44 1007.7
20260505203027 66 197 1.7 3.5 0.00 0.00 0.00 44 1007.6
20260505202526 66 194 1.7 3.5 0.00 0.00 0.00 45 1007.6
20260505202025 67 196 1.7 4.3 0.00 0.00 0.00 44 1007.6
20260505201527 67 191 2.6 4.3 0.00 0.00 0.00 44 1007.6
20260505201022 67 195 1.7 4.3 0.00 0.00 0.00 44 1007.6
20260505200520 66 192 1.7 5.2 0.00 0.00 0.00 45 1007.6
20260505200018 66 204 1.7 3.5 0.00 0.00 0.00 45 1007.6
20260505195516 65 200 1.7 4.3 0.00 0.00 0.00 47 1007.5
20260505195035 63 190 1.7 3.5 0.00 0.00 0.00 50 1007.5
20260505194533 61 179 0.9 2.6 0.00 0.00 0.00 55 1007.4
20260505194032 61 167 0.9 1.7 0.00 0.00 0.00 57 1007.5
20260505193531 61 151 0.0 0.9 0.00 0.00 0.00 56 1007.5
20260505193029 62 137 0.0 0.9 0.00 0.00 0.00 55 1007.6
20260505192527 63 145 0.0 1.7 0.00 0.00 0.00 55 1007.5
20260505192026 63 157 0.0 1.7 0.00 0.00 0.00 52 1007.4
20260505191525 63 172 0.0 1.7 0.00 0.00 0.00 54 1007.4
20260505191023 63 145 0.9 1.7 0.00 0.00 0.00 59 1007.4
20260505190523 64 0.0 0.9 0.00 0.00 0.00 48 1007.4
20260505190020 65 173 0.0 1.7 0.00 0.00 0.00 48 1007.4
20260505185519 64 0.0 0.9 0.00 0.00 0.00 49 1007.4
20260505185017 63 0.0 0.0 0.00 0.00 0.00 57 1007.5
20260505184516 64 155 0.0 0.9 0.00 0.00 0.00 53 1007.4
20260505184035 64 0.0 0.0 0.00 0.00 0.00 49 1007.5
20260505183533 64 152 0.0 0.9 0.00 0.00 0.00 48 1007.5
20260505183032 65 164 0.0 0.9 0.00 0.00 0.00 48 1007.4
20260505182530 65 0.0 0.9 0.00 0.00 0.00 47 1007.4
20260505182029 66 0.0 1.7 0.00 0.00 0.00 45 1007.4
20260505181527 67 0.0 0.0 0.00 0.00 0.00 44 1007.5
20260505181026 68 0.0 0.0 0.00 0.00 0.00 44 1007.5
20260505180524 69 0.0 0.9 0.00 0.00 0.00 43 1007.4
20260505180023 70 0.0 0.0 0.00 0.00 0.00 40 1007.5
20260505175521 71 0.0 0.0 0.00 0.00 0.00 39 1007.6
20260505175020 71 0.0 0.9 0.00 0.00 0.00 38 1007.4
20260505174518 71 228 0.0 0.9 0.00 0.00 0.00 38 1007.4
20260505174017 72 233 0.0 0.9 0.00 0.00 0.00 37 1007.4
20260505173516 72 0.0 0.9 0.00 0.00 0.00 37 1007.3
20260505173034 71 0.0 0.9 0.00 0.00 0.00 37 1007.5
20260505172533 71 230 0.0 0.9 0.00 0.00 0.00 36 1007.4
20260505172032 71 0.0 0.9 0.00 0.00 0.00 38 1007.5
20260505171530 72 0.0 0.0 0.00 0.00 0.00 38 1007.5
20260505171030 73 0.0 0.0 0.00 0.00 0.00 37 1007.5
20260505170528 73 0.0 0.0 0.00 0.00 0.00 37 1007.5
20260505170025 73 278 0.0 0.9 0.00 0.00 0.00 34 1007.5
20260505165524 73 0.0 0.9 0.00 0.00 0.00 36 1007.4
20260505165022 74 0.0 0.0 0.00 0.00 0.00 38 1007.6
20260505164521 74 0.0 0.0 0.00 0.00 0.00 37 1007.6
20260505164019 75 0.0 0.0 0.00 0.00 0.00 36 1007.7
20260505163518 75 0.0 0.0 0.00 0.00 0.00 33 1007.7
20260505163017 76 0.0 0.9 0.00 0.00 0.00 31 1007.7
20260505162535 76 229 0.0 0.9 0.00 0.00 0.00 30 1007.8
20260505162035 76 209 0.0 1.7 0.00 0.00 0.00 30 1007.8
20260505161532 76 197 0.0 1.7 0.00 0.00 0.00 29 1007.8
20260505161031 77 176 0.0 1.7 0.00 0.00 0.00 29 1007.8
20260505160529 77 194 0.9 1.7 0.00 0.00 0.00 28 1007.9
20260505153019 80 182 2.6 5.2 0.00 0.00 0.00 25 1008.2
20260505152518 79 197 2.6 6.1 0.00 0.00 0.00 25 1008.2
20260505152016 79 186 3.5 7.8 0.00 0.00 0.00 25 1008.3
20260505151536 78 178 2.6 4.3 0.00 0.00 0.00 25 1008.3
20260505151033 78 196 2.6 5.2 0.00 0.00 0.00 25 1008.2
20260505150532 78 183 3.5 7.0 0.00 0.00 0.00 25 1008.3